When you browse on this site, cookies collect data to enhance your experience and personalize the content and advertising you see.
Visit our Privacy Policy to learn more. By continuing to use the site, you agree to this use of cookies and data.
  • In Latvia
  • List of Countries
  • For 7 days
  • Water Temperature
  • Satellite Maps
  • Weather Map
  • Weather Widgets
  • user-avatar
    Login

    Hourly Weather Andora

    Today, 20 January, Sunday

    Time Temperature Precipitation Wind Pressure Humidity
    00:00 -3°C° 0 mm 1 mps 615 mmHg 81%
    01:00 -2°C° 0.2 mm 1 mps 615 mmHg 84%
    02:00 -2°C° 0.2 mm 1 mps 615 mmHg 87%
    03:00 -2°C° 0.2 mm 1 mps 614 mmHg 91%
    04:00 -2°C° 0.1 mm 1 mps 615 mmHg 89%
    05:00 -2°C° 0.1 mm 1 mps 615 mmHg 87%
    06:00 -2°C° 0 mm 1 mps 615 mmHg 83%
    07:00 -1°C° 0.1 mm 1 mps 615 mmHg 78%
    08:00 -1°C° 0.1 mm 1 mps 616 mmHg 74%
    09:00 -2°C° 0.1 mm 2 mps 616 mmHg 69%
    10:00 -1°C° 0 mm 2 mps 617 mmHg 64%
    11:00 +1°C° 0 mm 2 mps 617 mmHg 58%
    12:00 +1°C° 0 mm 2 mps 618 mmHg 53%
    13:00 +1°C° 0 mm 2 mps 617 mmHg 56%
    14:00 +1°C° 0 mm 2 mps 617 mmHg 59%
    15:00 -1°C° 0 mm 3 mps 617 mmHg 62%
    16:00 -2°C° 0.1 mm 2 mps 617 mmHg 70%
    17:00 -3°C° 0.1 mm 2 mps 617 mmHg 77%
    18:00 -4°C° 0.1 mm 2 mps 617 mmHg 85%
    19:00 -4°C° 0.1 mm 2 mps 617 mmHg 86%
    20:00 -4°C° 0.1 mm 2 mps 618 mmHg 87%
    21:00 -5°C° 0.1 mm 2 mps 618 mmHg 88%
    22:00 -5°C° 0 mm 2 mps 618 mmHg 88%
    23:00 -5°C° 0 mm 2 mps 618 mmHg 88%

    Tomorrow, 21 January, Monday

    Time Temperature Precipitation Wind Pressure Humidity
    00:00 -5°C° 0 mm 2 mps 618 mmHg 88%
    01:00 -5°C° 0.1 mm 2 mps 618 mmHg 87%
    02:00 -5°C° 0.1 mm 2 mps 618 mmHg 87%
    03:00 -5°C° 0.1 mm 2 mps 619 mmHg 87%
    04:00 -5°C° 0.1 mm 2 mps 619 mmHg 86%
    05:00 -5°C° 0.1 mm 2 mps 619 mmHg 86%
    06:00 -5°C° 0.1 mm 2 mps 619 mmHg 86%
    07:00 -5°C° 0.1 mm 2 mps 619 mmHg 82%
    08:00 -6°C° 0.1 mm 3 mps 620 mmHg 79%
    09:00 -5°C° 0.1 mm 3 mps 620 mmHg 76%
    10:00 -5°C° 0.1 mm 3 mps 621 mmHg 72%
    11:00 -4°C° 0.1 mm 3 mps 621 mmHg 67%
    12:00 -2°C° 0.1 mm 3 mps 621 mmHg 63%
    13:00 -2°C° 0 mm 3 mps 621 mmHg 63%
    14:00 -4°C° 0 mm 3 mps 621 mmHg 64%
    15:00 -4°C° 0 mm 3 mps 621 mmHg 65%
    16:00 -5°C° 0 mm 3 mps 620 mmHg 71%
    17:00 -7°C° 0 mm 3 mps 620 mmHg 77%
    18:00 -7°C° 0 mm 2 mps 620 mmHg 84%
    19:00 -7°C° 0 mm 2 mps 620 mmHg 84%
    20:00 -8°C° 0 mm 2 mps 620 mmHg 83%
    21:00 -9°C° 0 mm 2 mps 620 mmHg 83%
    22:00 -9°C° 0 mm 2 mps 619 mmHg 80%
    23:00 -9°C° 0 mm 2 mps 619 mmHg 77%

    Day after tomorrow, 22 January, Tuesday

    Time Temperature Precipitation Wind Pressure Humidity
    00:00 -10°C° 0 mm 2 mps 619 mmHg 74%
    01:00 -10°C° 0 mm 2 mps 618 mmHg 68%
    02:00 -10°C° 0 mm 2 mps 618 mmHg 61%
    03:00 -10°C° 0 mm 2 mps 617 mmHg 55%
    04:00 -10°C° 0 mm 2 mps 617 mmHg 50%
    05:00 -10°C° 0 mm 2 mps 617 mmHg 45%
    06:00 -10°C° 0 mm 2 mps 616 mmHg 40%
    07:00 -7°C° 0 mm 1 mps 616 mmHg 39%
    08:00 -4°C° 0 mm 1 mps 617 mmHg 38%
    09:00 -3°C° 0 mm 1 mps 617 mmHg 37%
    10:00 -2°C° 0 mm 1 mps 617 mmHg 39%
    11:00 -1°C° 0 mm 1 mps 616 mmHg 41%
    12:00 0°C° 0 mm 1 mps 616 mmHg 43%
    13:00 -3°C° 0.6 mm 2 mps 615 mmHg 54%
    14:00 -3°C° 0.6 mm 2 mps 614 mmHg 65%
    15:00 -5°C° 0.6 mm 3 mps 614 mmHg 75%
    16:00 -4°C° 0.3 mm 2 mps 613 mmHg 79%
    17:00 -5°C° 0.3 mm 2 mps 612 mmHg 83%
    18:00 -6°C° 0.3 mm 2 mps 612 mmHg 86%
    19:00 -6°C° 0.6 mm 2 mps 612 mmHg 88%
    20:00 -6°C° 0.6 mm 2 mps 612 mmHg 89%
    21:00 -5°C° 0.6 mm 2 mps 612 mmHg 90%
    22:00 -7°C° 1.2 mm 3 mps 612 mmHg 90%
    23:00 -8°C° 1.2 mm 3 mps 611 mmHg 90%

    23 January, Wednesday

    Time Temperature Precipitation Wind Pressure Humidity
    00:00 -8°C° 1.2 mm 3 mps 611 mmHg 90%
    01:00 -8°C° 1.2 mm 3 mps 611 mmHg 91%
    02:00 -9°C° 1.2 mm 3 mps 610 mmHg 92%
    03:00 -9°C° 1.2 mm 3 mps 610 mmHg 93%
    04:00 -9°C° 1.6 mm 3 mps 609 mmHg 94%
    05:00 -9°C° 1.6 mm 3 mps 609 mmHg 94%
    06:00 -9°C° 1.6 mm 3 mps 608 mmHg 95%
    07:00 -9°C° 1.6 mm 3 mps 608 mmHg 94%
    08:00 -9°C° 1.6 mm 3 mps 608 mmHg 93%
    09:00 -10°C° 1.6 mm 3 mps 608 mmHg 93%
    10:00 -10°C° 0.8 mm 4 mps 608 mmHg 90%
    11:00 -11°C° 0.8 mm 5 mps 608 mmHg 88%
    12:00 -11°C° 0.8 mm 6 mps 608 mmHg 86%
    13:00 -11°C° 0.5 mm 6 mps 608 mmHg 86%
    14:00 -12°C° 0.5 mm 6 mps 608 mmHg 87%
    15:00 -12°C° 0.5 mm 6 mps 608 mmHg 88%
    16:00 -12°C° 0.4 mm 6 mps 608 mmHg 88%
    17:00 -14°C° 0.4 mm 6 mps 608 mmHg 89%
    18:00 -14°C° 0.4 mm 6 mps 609 mmHg 90%
    19:00 -14°C° 0.4 mm 6 mps 609 mmHg 90%
    20:00 -14°C° 0.4 mm 6 mps 610 mmHg 90%
    21:00 -15°C° 0.4 mm 6 mps 610 mmHg 89%
    22:00 -15°C° 0.3 mm 6 mps 610 mmHg 89%
    23:00 -15°C° 0.3 mm 6 mps 610 mmHg 89%

    24 January, Thursday

    Time Temperature Precipitation Wind Pressure Humidity
    00:00 -15°C° 0.3 mm 6 mps 611 mmHg 89%
    01:00 -15°C° 0.2 mm 6 mps 611 mmHg 89%
    02:00 -15°C° 0.2 mm 5 mps 611 mmHg 88%
    03:00 -15°C° 0.2 mm 5 mps 611 mmHg 88%
    04:00 -15°C° 0.1 mm 5 mps 611 mmHg 87%
    05:00 -15°C° 0.1 mm 5 mps 611 mmHg 87%
    06:00 -15°C° 0.1 mm 4 mps 612 mmHg 86%
    07:00 -15°C° 0 mm 4 mps 612 mmHg 85%
    08:00 -14°C° 0 mm 4 mps 612 mmHg 83%
    09:00 -14°C° 0 mm 4 mps 613 mmHg 81%
    10:00 -12°C° 0 mm 4 mps 613 mmHg 80%
    11:00 -10°C° 0 mm 4 mps 613 mmHg 79%
    12:00 -9°C° 0 mm 4 mps 614 mmHg 78%
    13:00 -8°C° 0.6 mm 3 mps 613 mmHg 81%
    14:00 -7°C° 0.6 mm 3 mps 613 mmHg 84%
    15:00 -6°C° 0.6 mm 2 mps 612 mmHg 87%
    16:00 -6°C° 0.9 mm 3 mps 613 mmHg 88%
    17:00 -6°C° 0.9 mm 3 mps 613 mmHg 89%
    18:00 -5°C° 0.9 mm 3 mps 614 mmHg 90%
    19:00 -5°C° 1 mm 3 mps 614 mmHg 90%
    20:00 -4°C° 1 mm 3 mps 615 mmHg 90%
    21:00 -2°C° 1 mm 3 mps 615 mmHg 90%
    22:00 -4°C° 0.6 mm 4 mps 615 mmHg 90%
    23:00 -5°C° 0.6 mm 5 mps 615 mmHg 90%

    25 January, Friday

    Time Temperature Precipitation Wind Pressure Humidity
    00:00 -5°C° 0.6 mm 5 mps 615 mmHg 90%
    01:00 -5°C° 0.3 mm 5 mps 615 mmHg 89%
    02:00 -6°C° 0.3 mm 5 mps 615 mmHg 89%
    03:00 -6°C° 0.3 mm 5 mps 614 mmHg 89%
    04:00 -7°C° 0.1 mm 5 mps 615 mmHg 88%
    05:00 -7°C° 0.1 mm 5 mps 615 mmHg 88%
    06:00 -8°C° 0.1 mm 5 mps 615 mmHg 87%
    07:00 -8°C° 0.1 mm 5 mps 615 mmHg 86%
    08:00 -9°C° 0.1 mm 6 mps 616 mmHg 85%
    09:00 -9°C° 0.1 mm 6 mps 617 mmHg 84%
    10:00 -8°C° 0.1 mm 6 mps 617 mmHg 83%
    11:00 -8°C° 0.1 mm 6 mps 618 mmHg 82%
    12:00 -8°C° 0.1 mm 6 mps 618 mmHg 81%
    13:00 -8°C° 0 mm 6 mps 618 mmHg 80%
    14:00 -9°C° 0 mm 6 mps 618 mmHg 80%
    15:00 -8°C° 0 mm 5 mps 618 mmHg 80%
    16:00 -10°C° 0 mm 5 mps 618 mmHg 82%
    17:00 -12°C° 0 mm 5 mps 618 mmHg 83%
    18:00 -12°C° 0 mm 4 mps 618 mmHg 85%
    19:00 -14°C° 0 mm 4 mps 618 mmHg 84%
    20:00 -14°C° 0 mm 4 mps 618 mmHg 83%
    21:00 -15°C° 0 mm 4 mps 619 mmHg 81%
    22:00 -15°C° 0 mm 4 mps 619 mmHg 78%
    23:00 -15°C° 0 mm 4 mps 619 mmHg 75%
    Show more